Location: Bodest
(46.3000°N, 22.5667°E)
Time: 00:19:42
(UTC+00:00)

IRS-1C Rocket - Pass Details

Date: 16 October 2021
Orbit: 801 x 805 km, 98.9° (Epoch: 02 December)

Event Time Altitude Azimuth Distance (km) Brightness Sun altitude
Exits shadow 17:08:16 - 154° (SSE) 3,293 7.0 -15.8°
Reaches altitude 10° 17:10:35 10° 151° (SSE) 2,372 6.2 -16.2°
Maximum altitude 17:15:45 63° 71° (ENE) 892 4.0 -17.0°
Drops below altitude 10° 17:20:58 10° 351° (N) 2,391 6.7 -17.9°
Sets 17:23:20 0° 349° (NNW) 3,327 7.5 -18.3°
